OBJECT B, 69321

Orbit data source: Space-Track

You're viewing an Uncataloged Satellite

Recently launched and/or uncataloged satellites may have evolving metadata. Metadata may include but not limited to: Owner, Maufacturer, Bus, Motor, and Mission.

OBJECT B, 69321 is a satellite owned by Zhongguo Xingwang (CN) in LEO that was launched on Sat, 30 May 2026 UTC via a CHANG ZHENG 2D launch vehicle from the Xichang Space Center, China (XSC). Unknown objects in Earth's orbit typically refer to objects detected orbiting the Earth but have not yet been identified or cataloged. These objects could be anything from previously untracked satellites, spent rocket stages, debris from satellite collisions, or even natural meteoroids temporarily captured by Earth's gravity.

Loading next visibility...
Identifier
69321, 2026-120B
Orbit
LEO
Country
Flag of CNCN / PRC
Related business
Manufacturer
CASIC
Mission
Operational spacecraft
Bus & Motor
Unknown
Mass
~300 kg wet, ~300 kg dry
Launch date (UTC)
2026-05-30 (2 weeks ago)
Launch vehicle
CHANG ZHENG 2D
Launch site
Xichang Space Center, China (XSC)
Object type
Unknown
Shape & HBR
Unknown
Radar Cross Section
RCS unknown

Expand to show TLE details & history
Last TLE update: 1 week ago

TLE from 1 week ago
0 OBJECT B
1 69321U 26120B   26152.22646240  .00027608  00000-0  70944-3 0  9994
2 69321  54.9976  99.6150 0009147 282.2486  77.7518 15.39106645   236
Epoch: 2026-06-01T05:26Z
TLE epoch observation values (Epoch: 2026-06-01T05:26:06.351Z)
Latitude
Longitude
128.37171°
Altitude
448.53 km
Speed
7.645 km/s
True Right ascension
06h 38m 27s
True Declination
0° 00' 00"
Sunlit
Object was in daylight at epoch
Visualization orbit readout
Latitude
Unknown
Longitude
Unknown
Altitude
Unknown
Speed
Unknown
Apparent Right ascension
Unknown
Apparent Declination
Unknown
Sunlit
N/A
Visualization observer readout
Local Sidereal Time
12:41:05
Azimuth
Unknown
Elevation
Unknown
Doppler factor
Unknown
Orbital elements
Apogee altitude
454.957 km
Perigee altitude
442.468 km
Semi-major axis
6,826.849 km
Eccentricity
0.00091
Inclination
54.9976°
RAAN
99.615°
Arg. of periapsis
282.2486°
True anomaly
77.85426°
Mean anomaly
77.7518°
Eccentric anomaly
77.80303°
Mean motion
3.8478 °/min
Orbital period
93.56 mins
BSTAR
0.00070944
Loading maneuver chart data...
Computing Atmospheric mass density...
Loading historical data...
Loading historical data...
Loading historical data...
Loading historical data...
Loading historical data...
Loading historical data...
Loading historical data...
Other satellites on launch #120 in the year 2026 (2026-05-30 UTC)

Documentation

Showing up to 5 results
|